Regional Weather Roundup
Issued by NWS Charleston, SC

Current Version | Previous Version | Graphics & Text | Print | Product List | Glossary On
Versions: 1 2 3 4 5 6 7 8 9 10 11 12 13 14 15 16 17 18 19 20 21 22 23 24 25 26 27 28 29 30 31 32 33 34 35 36 37 38 39 40 41 42 43 44 45 46 47 48 49 50
589
ASUS42 KCHS 272313
RWRCHS

REGIONAL WEATHER ROUNDUP
NATIONAL WEATHER SERVICE CHARLESTON SC
700 PM EDT WED JUL 27 2016

NOTE: "FAIR" INDICATES FEW OR NO CLOUDS BELOW 12,000 FEET WITH NO
SIGNIFICANT WEATHER AND/OR OBSTRUCTIONS TO VISIBILITY.

NOT ALL STATIONS ARE QUALITY CONTROLLED. USE DATA WITH CAUTION...
ESPECIALLY DEWPOINT OBSERVATIONS.

SCZ027-030-031-034>040-042>050-280000-
...SOUTHEAST SOUTH CAROLINA...

CITY           SKY/WX    TMP DP  RH WIND       PRES   REMARKS
N CHARLESTON   MOSUNNY   91  77  63 S12       29.96F HX 104
WATERFRONT PRK   N/A     88  80  77 S9        29.95S HX 104
MOUNT PLEASANT FAIR      90  79  70 S8        29.96F HX 105
JOHNS ISLAND   FAIR      90  81  74 SW9G15    29.97F HX 108
PINOPOLIS        N/A     93  75  55 SW8       29.87S HX 104
MONCKS CORNER  FAIR      90  68  48 SW7       29.95F HX  93
SUMMERVILLE    NOT AVBL
BEAUFORT MCAS  MOSUNNY   94  71  47 SW12      29.97S HX 101
BEAUFORT ARPT  NOT AVBL
HILTON HEAD IS NOT AVBL
WALTERBORO     PTCLDY    95  70  43 SW8       29.97S HX 101
ALLENDALE      FAIR      95  72  46 SW6       29.95F HX 103

...SOUTHERN MIDLANDS AND PEE DEE...

CITY           SKY/WX    TMP DP  RH WIND       PRES   REMARKS
GEORGETOWN     FAIR      88  77  70 S7        29.96F HX 100
KINGSTREE      FAIR      93  70  46 S5        29.93F HX  99
ORANGEBURG     SUNNY     94  72  48 SW10      29.95F HX 102
BARNWELL       NOT AVBL
AIKEN          FAIR      91  68  46 SW10      30.00S HX  95
MANNING        FAIR      91  72  52 S6        29.94F HX  98
COLUMBIA       MOSUNNY   95  70  44 SW12      29.92F HX 101
SUMTER         SUNNY     95  72  46 SW10      29.91F HX 103
FLORENCE       SUNNY     94  72  48 SW10      29.93F HX 102
MYRTLE BEACH   MOSUNNY   90  73  58 SW16      29.95F HX  98
N MYRTLE BEACH SUNNY     87  78  74 SW18      29.93F HX 100

$$

GAZ063-065-086>088-099>101-113>116-118-119-134>141-150-280000-
...SOUTHEAST GEORGIA...

CITY           SKY/WX    TMP DP  RH WIND       PRES   REMARKS
SAVANNAH ARPT  MOSUNNY   95  68  41 SW7       29.97F HX  99
HUNTER AAF     SUNNY     94  75  53 SW6       29.95F HX 106
FORT STEWART   SUNNY     95  70  44 SW7       29.94F HX 101
STATESBORO     SUNNY     94  74  51 W5        29.97F HX 105
SYLVANIA       NOT AVBL
CLAXTON        MOCLDY    95  73  47 W5        29.97F HX 104

...CSRA...CENTRAL AND FAR SOUTHEAST GEORGIA...

CITY           SKY/WX    TMP DP  RH WIND       PRES   REMARKS
THOMSON        NOT AVBL
AUGUSTA-BUSH   SUNNY     96  67  38 W14       29.95S HX 100
AUGUSTA-DANIEL SUNNY     95  67  39 SW8       29.97F HX  99
SWAINSBORO     FAIR      95  68  41 W7        29.99S HX  99
VIDALIA        MOSUNNY   95  68  41 W6        29.99S HX  99
EASTMAN        FAIR      94  53  25 W6        30.02S HX  92
HAZLEHURST     FAIR      95  70  44 CALM      29.99S HX 101
ALMA           SUNNY     94  65  38 W8        29.99F HX  96
WAYCROSS       SUNNY     98  73  44 W7        30.00S HX 107
JESUP          FAIR      95  75  52 W6        29.98F HX 107
BAXLEY         FAIR      95  73  49 W7        29.99S HX 105
BRUNSWICK      MOSUNNY   91  79  66 SE8       29.99F HX 107
SAINT SIMONS   SUNNY     89  75  63 S10       29.99F HX  99

$$

SCZ027-028-034-036>038-045-046-048>050-GAZ119-141-280000-
...LAKE AND SUPPLEMENTAL COASTAL OBSERVATIONS...

STATION/POSITION TIME  TEMP    WIND        PRES    WAVE   SWELL
                       AIR SEA DIR/SP/G            HT/PER HT/PER/DIR
                 (UTC) (F)     (DEG/KT/KT) (MB)    (FT/S) (FT/S/D)
WINYAH BAY       2145   90     210/ 12     1014.0
LAKE MURRAY      2200   94     210/  9/ 10 1012.9F
ACE BASIN NERRS  NOT AVBL
FORT PULASKI     2200      88                N/A
SAPELO ISLAND    2200   92     160/ 12     1016.0S

$$

ANZ835-935-AMZ111-154-330-350-352-354-370-450-454-472-280000-
...C-MAN AND BUOY OBSERVATIONS...

STATION/POSITION TIME  TEMP    WIND        PRES    WAVE   SWELL
                       AIR SEA DIR/SP/G            HT/PER HT/PER/DIR
                 (UTC) (F)     (DEG/KT/KT) (MB)    (FT/S) (FT/S/D)
BUOY 41004       2250   86 87  220/ 16/ 17 1014.6F   3/ 5   2/160/ 7
BUOY 41008       2250   87 87  160/ 16/ 17 1015.5F   2/ 3
FOLLY BEACH CMAN 2200   86     200/ 14/ 17 1015.4F
CAPERS NEARSHORE 2208   85 85  220/ 16/ 21 1014.8S
FRIPP NEARSHORE  2208   86 88  200/ 16/ 19 1014.6F


STATION/POSITION TIME  TEMP    WIND        PRES    WAVE   SWELL
                       AIR SEA DIR/SP/G            HT/PER HT/PER/DIR
                 (UTC) (F)     (DEG/KT/KT) (MB)    (FT/S) (FT/S/D)
5E ST. MARYS GA  2201      86                N/A     2/ 3
FRYING PAN BUOY  2200   86 85  220/ 16/ 19 1014.4S
BUOY 41025       2250   86 85  240/ 10/ 12 1013.0R   3/ 6   2/220/ 6
CAPE LOOKOUT NC  2200   86     210/ 11/ 14 1012.8F
BUOY 41002       2250   85 85  230/ 10/ 12 1016.1F   4/ 6   3/250/ 6
BUOY 41010       2220   87 88   10/  2/  4 1017.7F
ST AUGUSTINE FL  2300   85 88  150/ 12/ 13 1017.4F


$$




USA.gov is the U.S. government's official web portal to all federal, state and local government web resources and services.